[[{"header":{"parameterUnit":"m.s-1","parameterCategory":1,"la1":30.2991,"la2":30.254,"lo1":-89.0895,"lo2":-89.0444,"dy":0.0017,"dx":0.0017,"nx":28,"ny":28,"refTime":"2025-04-01T09:00:00:Z","depth":0,"parameterNumber":2,"parameterNumberName":"U-component_of_WINDS"},"data":[0,0,0,0,0,0,0,0,0,0,0,0,0,0,0,0,0,0,0,0,0,0,0,0,0,0,0,0,0,0,0,0,0,0,0,0,0,0,0,0,0,0,0,0,0,0,0,0,0,0,0,0,0,0,0,0,0,0,-3.3901,-3.39,0,-3.3806,-3.3805,-3.3803,-3.3656,-3.3653,-3.3651,-3.3648,-3.3554,-3.3554,-3.3554,0,0,0,0,0,0,0,0,0,0,0,0,0,-3.3957,-3.3957,-3.3901,-3.39,-3.3898,-3.3806,-3.3804,-3.3803,-3.3657,-3.3653,-3.365,-3.3647,-3.3554,-3.3554,-3.3554,0,0,0,0,0,0,0,0,0,0,0,0,0,-3.3905,-3.3957,-3.3901,-3.3814,-3.3805,-3.3806,-3.3804,-3.3803,-3.3657,-3.3653,-3.3649,-3.3646,-3.3554,-3.3554,-3.3554,-3.3633,0,0,-3.3554,-3.3554,0,0,0,0,0,0,0,0,-3.3908,-3.3903,-3.3828,-3.382,-3.381,-3.3738,-3.379,-3.3746,-3.3658,-3.3714,-3.3648,-3.3644,-3.3619,-3.3613,-3.3604,-3.3629,-3.3624,-3.3554,-3.3554,-3.3554,-3.3554,0,0,0,0,0,0,0,-3.3912,-3.3906,-3.3863,-3.3827,-3.3816,-3.378,-3.3768,-3.3781,-3.369,-3.3708,-3.3697,-3.3688,-3.3613,-3.3605,-3.3601,-3.3623,-3.3554,-3.3554,-3.3554,-3.3553,-3.3707,-3.3711,0,0,0,0,0,0,-3.3928,-3.391,-3.3866,-3.386,-3.385,-3.3783,-3.3769,-3.3766,-3.3689,-3.3674,-3.3692,-3.3682,-3.3607,-3.3601,-3.3597,-3.3684,-3.3554,-3.3553,-3.3553,-3.3703,-3.3708,-3.3712,0,0,0,0,0,0,-3.393,-3.3925,-3.387,-3.3882,-3.3872,-3.3786,-3.3783,-3.3766,-3.3757,-3.3676,-3.366,-3.3699,-3.3603,-3.3597,-3.3625,-3.3679,-3.3553,-3.3553,-3.3698,-3.3704,-3.371,-3.386,0,0,0,0,0,0,-3.3932,-3.3927,-3.3956,-3.3884,-3.3872,-3.39,-3.3786,-3.3767,-3.3757,-3.3743,-3.3679,-3.3665,-3.36,-3.3626,-3.3625,-3.3677,-3.3553,-3.3693,-3.3701,-3.3708,-3.385,-3.3871,-3.3889,0,0,0,0,0,-3.3934,-3.4003,-3.3958,-3.3954,-3.3906,-3.3903,-3.3896,-3.3819,-3.3762,-3.379,-3.3738,-3.3667,-3.3673,-3.363,-3.3627,-3.368,-3.3689,-3.3699,-3.3708,-3.3842,-3.3867,-3.3888,0,0,0,0,0,0,-3.4085,-3.3992,-3.3941,-3.3988,-3.3954,-3.3878,-3.3912,-3.3848,-3.3831,-3.3819,-3.3724,-3.3711,-3.3751,-3.3718,-3.3671,-3.3752,-3.367,-3.3679,-3.3773,-3.3796,-3.3815,-3.3823,-3.3553,0,0,0,0,0,-3.4123,-3.4127,-3.4046,-3.4095,-3.4081,-3.4,-3.3995,-3.3938,-3.39,-3.3885,-3.3835,-3.3802,-3.3795,-3.3794,-3.3784,-3.3844,-3.3828,-3.3879,-3.3899,-3.3915,-3.3924,-3.3954,-3.3975,-3.3743,-3.3743,-3.3742,0,0,-3.4203,-3.4153,-3.4161,-3.4124,-3.4091,-3.4098,-3.3989,-3.4001,-3.4005,-3.3887,-3.391,-3.3872,-3.3828,-3.3873,-3.389,-3.3847,-3.3985,-3.3927,-3.394,-3.3941,-3.3965,-3.3988,-3.4007,-3.3749,-3.3748,-3.3747,0,0,-3.4352,-3.4314,-3.4351,-3.432,-3.4271,-3.4216,-3.4225,-3.4158,-3.4128,-3.4149,-3.4061,-3.4065,-3.4056,-3.4028,-3.4013,-3.4151,-3.4084,-3.415,-3.4251,-3.4281,-3.4299,-3.4315,-3.4365,-3.4383,-3.416,-3.416,-3.416,0,-3.4458,-3.4464,-3.4378,-3.4395,-3.4382,-3.4274,-3.431,-3.4285,-3.4236,-3.4229,-3.4181,-3.4168,-3.4131,-3.4167,-3.42,-3.4192,-3.4199,-3.4158,-3.4303,-3.4318,-3.4332,-3.4378,-3.4397,-3.4168,-3.4167,-3.4166,-3.4166,0,-3.4597,-3.4602,-3.4638,-3.4592,-3.4582,-3.461,-3.4528,-3.4529,-3.4472,-3.4423,-3.4446,-3.4397,-3.4375,-3.4379,-3.4325,-3.4408,-3.4383,-3.4321,-3.4236,-3.4364,-3.4406,-3.4423,-3.418,-3.4177,-3.4175,-3.4173,0,0,-3.4839,-3.4744,-3.4759,-3.4737,-3.4674,-3.4677,-3.4699,-3.4677,-3.4679,-3.4649,-3.4666,-3.466,-3.4602,-3.4585,-3.4526,-3.4552,-3.4664,-3.4486,-3.4484,-3.4522,-3.4753,-3.4801,-3.4823,-3.4619,-3.4622,-3.4625,-3.4757,0,-3.4977,-3.5008,-3.4931,-3.4983,-3.4987,-3.4883,-3.4903,-3.4867,-3.4821,-3.4818,-3.4767,-3.4766,-3.4688,-3.4677,-3.4698,-3.4647,-3.471,-3.4636,-3.4635,-3.4636,-3.465,-3.4845,-3.4896,-3.5023,-3.4773,-3.4775,-3.4777,0,-3.5141,-3.5118,-3.517,-3.5103,-3.5102,-3.5121,-3.5094,-3.5092,-3.5049,-3.5014,-3.4995,-3.4925,-3.4943,-3.4861,-3.4884,-3.4835,-3.483,-3.4804,-3.4807,-3.4805,-3.4716,-3.4849,-3.5062,-3.5082,-3.4802,-3.48,-3.4798,0,-3.5314,-3.5296,-3.5324,-3.5308,-3.5231,-3.5247,-3.5216,-3.5169,-3.516,-3.5136,-3.5129,-3.5109,-3.5098,-3.5083,-3.501,-3.4957,-3.5042,-3.4954,-3.5014,-3.5017,-3.5038,-3.5038,-3.5255,-3.5034,-3.5033,-3.5033,-3.5033,0,-3.5476,-3.5512,-3.5401,-3.5419,-3.5455,-3.5366,-3.5405,-3.5364,-3.5323,-3.5331,-3.524,-3.525,-3.5152,-3.5151,-3.5094,-3.5122,-3.5118,-3.509,-3.5075,-3.5099,-3.5103,-3.5096,-3.5085,-3.5038,-3.5037,-3.5036,-3.5035,0,-3.5677,-3.5603,-3.5627,-3.5552,-3.5534,-3.5565,-3.55,-3.5514,-3.5461,-3.5473,-3.547,-3.5389,-3.5383,-3.5308,-3.5286,-3.5248,-3.5299,-3.5266,-3.5313,-3.5303,-3.5368,-3.5363,-3.5588,-3.5613,-3.5376,-3.5378,-3.538,0,-3.5786,-3.581,-3.5737,-3.5736,-3.5709,-3.5707,-3.5697,-3.561,-3.5604,-3.5556,-3.5575,-3.5562,-3.5546,-3.5542,-3.5481,-3.5464,-3.5431,-3.551,-3.5428,-3.5451,-3.5433,-3.5433,-3.5435,-3.5529,-3.5532,-3.5534,-3.5536,0,-3.5987,-3.5949,-3.5938,-3.5914,-3.5904,-3.5881,-3.5853,-3.5857,-3.5761,-3.5758,-3.575,-3.5739,-3.5715,-3.5703,-3.5675,-3.5643,-3.5575,-3.5562,-3.5576,-3.5601,-3.5628,-3.5615,-3.5362,-3.5558,-3.5556,-3.5554,-3.5553,-3.5552,-3.6145,-3.6162,-3.6113,-3.6104,-3.6073,-3.6048,-3.6057,-3.6005,-3.5997,-3.597,-3.5919,-3.5919,-3.5875,-3.5829,-3.5803,-3.5802,-3.5761,-3.578,-3.5785,-3.5792,-3.5805,-3.5627,-3.5797,-3.5796,-3.5795,-3.5795,-3.5794,0,-3.6342,-3.6305,-3.6297,-3.626,-3.6252,-3.6186,-3.6151,-3.615,-3.6151,-3.6114,-3.61,-3.6092,-3.6079,-3.6017,-3.5997,-3.6009,-3.5977,-3.6007,-3.6006,-3.6,-3.5842,-3.5833,-3.6033,-3.6033,-3.6033,-3.6033,-3.6033,-3.6033,-3.6444,-3.647,-3.6426,-3.6436,-3.6398,-3.6397,-3.6382,-3.6359,-3.633,-3.6323,-3.6312,-3.6271,-3.6224,-3.62,-3.6186,-3.6168,-3.6166,-3.6207,-3.6179,-3.6033,-3.6011,-3.5989,-3.598,-3.6207,-3.6207,-3.6335,-3.6336,-3.6337]},{"header":{"parameterUnit":"m.s-1","parameterCategory":1,"la1":30.2991,"la2":30.254,"lo1":-89.0895,"lo2":-89.0444,"dy":0.0017,"dx":0.0017,"nx":28,"ny":28,"refTime":"2025-04-01T09:00:00:Z","depth":0,"parameterNumber":3,"parameterNumberName":"V-component_of_WINDS"},"data":[0,0,0,0,0,0,0,0,0,0,0,0,0,0,0,0,0,0,0,0,0,0,0,0,0,0,0,0,0,0,0,0,0,0,0,0,0,0,0,0,0,0,0,0,0,0,0,0,0,0,0,0,0,0,0,0,0,0,-2.159,-2.1591,0,-2.1601,-2.1602,-2.1602,-2.1568,-2.1567,-2.1566,-2.1565,-2.1577,-2.1578,-2.1579,0,0,0,0,0,0,0,0,0,0,0,0,0,-2.1539,-2.1541,-2.159,-2.1591,-2.1591,-2.1601,-2.1602,-2.1602,-2.1568,-2.1567,-2.1566,-2.1565,-2.1576,-2.1578,-2.1579,0,0,0,0,0,0,0,0,0,0,0,0,0,-2.1557,-2.1541,-2.159,-2.1575,-2.1574,-2.1601,-2.1602,-2.1602,-2.1569,-2.1567,-2.1566,-2.1564,-2.1576,-2.1578,-2.1579,-2.1622,0,0,-2.1585,-2.1586,0,0,0,0,0,0,0,0,-2.1556,-2.1559,-2.1577,-2.1576,-2.1575,-2.1582,-2.1588,-2.1609,-2.1569,-2.1571,-2.1565,-2.1563,-2.158,-2.1581,-2.1587,-2.1622,-2.1623,-2.1585,-2.1587,-2.1587,-2.1588,0,0,0,0,0,0,0,-2.1555,-2.1558,-2.1595,-2.1578,-2.1576,-2.1568,-2.1569,-2.1592,-2.1584,-2.157,-2.1568,-2.157,-2.1579,-2.1585,-2.1587,-2.1623,-2.1585,-2.1587,-2.1588,-2.1589,-2.1693,-2.1695,0,0,0,0,0,0,-2.1556,-2.1558,-2.1594,-2.1595,-2.1562,-2.157,-2.1571,-2.1581,-2.1583,-2.1582,-2.1571,-2.1568,-2.1582,-2.1584,-2.1587,-2.1636,-2.1587,-2.1589,-2.159,-2.1691,-2.1693,-2.1695,0,0,0,0,0,0,-2.1555,-2.1559,-2.1594,-2.1576,-2.1579,-2.1572,-2.1584,-2.1582,-2.1588,-2.1584,-2.1582,-2.1579,-2.1581,-2.1584,-2.1613,-2.1636,-2.159,-2.1592,-2.169,-2.1692,-2.1694,-2.1735,0,0,0,0,0,0,-2.1554,-2.1559,-2.1576,-2.1576,-2.1581,-2.1621,-2.1586,-2.1584,-2.1592,-2.1588,-2.1591,-2.159,-2.158,-2.1611,-2.1615,-2.1638,-2.1593,-2.1687,-2.1691,-2.1694,-2.1732,-2.1739,-2.1745,0,0,0,0,0,-2.1552,-2.1587,-2.1577,-2.1581,-2.1601,-2.1622,-2.1624,-2.1613,-2.1594,-2.161,-2.1607,-2.159,-2.1633,-2.1614,-2.1619,-2.1642,-2.1686,-2.169,-2.1693,-2.1729,-2.1737,-2.1745,0,0,0,0,0,0,-2.159,-2.1587,-2.1575,-2.1612,-2.1617,-2.1616,-2.1636,-2.1622,-2.1633,-2.1629,-2.1614,-2.1615,-2.1647,-2.1647,-2.1626,-2.1683,-2.1656,-2.1661,-2.1681,-2.169,-2.1696,-2.1695,-2.1595,0,0,0,0,0,-2.1602,-2.162,-2.1616,-2.1649,-2.1652,-2.1644,-2.1652,-2.1643,-2.1648,-2.165,-2.1649,-2.1655,-2.1669,-2.1679,-2.1693,-2.1732,-2.1731,-2.175,-2.1757,-2.1762,-2.1766,-2.1786,-2.1794,-2.1707,-2.1707,-2.1707,0,0,-2.1628,-2.1629,-2.1641,-2.1656,-2.1659,-2.1677,-2.1646,-2.1667,-2.168,-2.1653,-2.168,-2.168,-2.1685,-2.1719,-2.1734,-2.172,-2.179,-2.1767,-2.1771,-2.1772,-2.1791,-2.1799,-2.1806,-2.171,-2.1709,-2.1709,0,0,-2.1685,-2.1688,-2.1715,-2.1718,-2.1723,-2.1717,-2.1724,-2.1724,-2.1723,-2.175,-2.173,-2.1745,-2.1771,-2.1775,-2.1781,-2.1838,-2.1822,-2.1842,-2.1876,-2.1896,-2.1903,-2.1909,-2.1929,-2.1936,-2.1847,-2.1847,-2.1847,0,-2.1717,-2.1744,-2.173,-2.1752,-2.1759,-2.1735,-2.1762,-2.1766,-2.1775,-2.1781,-2.1765,-2.1796,-2.1798,-2.1832,-2.1846,-2.1851,-2.1858,-2.1842,-2.1903,-2.1909,-2.1914,-2.1933,-2.194,-2.1849,-2.1849,-2.1849,-2.1849,0,-2.1783,-2.1801,-2.1822,-2.1831,-2.184,-2.1865,-2.1854,-2.1865,-2.1855,-2.185,-2.1877,-2.1879,-2.1891,-2.1899,-2.1889,-2.1931,-2.1922,-2.1905,-2.1878,-2.1925,-2.1942,-2.1949,-2.1853,-2.1852,-2.1851,-2.1851,0,0,-2.1865,-2.1865,-2.1873,-2.1876,-2.1879,-2.1893,-2.1916,-2.1928,-2.1937,-2.1944,-2.1962,-2.1984,-2.1968,-2.1974,-2.1964,-2.1981,-2.2026,-2.1962,-2.1961,-2.1973,-2.2072,-2.2085,-2.2093,-2.2015,-2.2016,-2.2017,-2.2071,0,-2.192,-2.1959,-2.1947,-2.1986,-2.2003,-2.198,-2.1999,-2.2003,-2.1999,-2.2013,-2.2008,-2.2024,-2.2001,-2.2005,-2.2021,-2.2017,-2.2045,-2.2013,-2.2032,-2.2033,-2.2031,-2.2103,-2.2117,-2.2167,-2.2078,-2.2079,-2.208,0,-2.1991,-2.2,-2.2041,-2.204,-2.2046,-2.2064,-2.2074,-2.2087,-2.209,-2.2086,-2.2092,-2.2079,-2.21,-2.2073,-2.2102,-2.2081,-2.2087,-2.2087,-2.2088,-2.209,-2.2059,-2.2106,-2.2183,-2.2191,-2.2091,-2.209,-2.2089,0,-2.2046,-2.2068,-2.2095,-2.2099,-2.2099,-2.2112,-2.2112,-2.2114,-2.2122,-2.213,-2.2135,-2.2146,-2.2152,-2.216,-2.2149,-2.213,-2.218,-2.2152,-2.2177,-2.2178,-2.2189,-2.2189,-2.2269,-2.2194,-2.2194,-2.2193,-2.2193,0,-2.211,-2.2135,-2.212,-2.2137,-2.2164,-2.215,-2.2178,-2.2175,-2.2177,-2.2193,-2.2174,-2.2188,-2.2173,-2.2187,-2.2179,-2.2204,-2.2207,-2.2204,-2.2201,-2.2206,-2.2206,-2.221,-2.2206,-2.2195,-2.2195,-2.2195,-2.2194,0,-2.2177,-2.2167,-2.2195,-2.2192,-2.2192,-2.2212,-2.221,-2.2225,-2.2219,-2.2239,-2.2243,-2.2234,-2.2249,-2.2239,-2.2254,-2.2248,-2.2281,-2.2274,-2.228,-2.2278,-2.2304,-2.2301,-2.2389,-2.24,-2.2318,-2.2319,-2.232,0,-2.2218,-2.2237,-2.2236,-2.2244,-2.2246,-2.2261,-2.2268,-2.2254,-2.2263,-2.2267,-2.2282,-2.2295,-2.2304,-2.2329,-2.2324,-2.2335,-2.2327,-2.2357,-2.2329,-2.2332,-2.2328,-2.2327,-2.2328,-2.2363,-2.2364,-2.2365,-2.2366,0,-2.2292,-2.2286,-2.2297,-2.2307,-2.2316,-2.2323,-2.2329,-2.2337,-2.2323,-2.2333,-2.2348,-2.2355,-2.237,-2.2383,-2.2392,-2.2392,-2.2377,-2.2375,-2.2381,-2.2386,-2.2388,-2.2387,-2.2296,-2.2373,-2.2372,-2.2372,-2.2371,-2.2371,-2.2347,-2.2362,-2.2364,-2.2377,-2.2379,-2.2384,-2.2398,-2.2394,-2.2406,-2.2416,-2.2407,-2.2424,-2.2426,-2.2437,-2.2439,-2.2452,-2.244,-2.2449,-2.2451,-2.2454,-2.2457,-2.2386,-2.2453,-2.2453,-2.2453,-2.2453,-2.2453,0,-2.242,-2.2419,-2.2431,-2.2439,-2.2449,-2.2433,-2.2438,-2.2447,-2.2463,-2.2466,-2.2475,-2.2492,-2.2504,-2.2499,-2.251,-2.2521,-2.2515,-2.2525,-2.2524,-2.2524,-2.2468,-2.2461,-2.253,-2.253,-2.253,-2.253,-2.253,-2.253,-2.2459,-2.2484,-2.2478,-2.2504,-2.2503,-2.2519,-2.2524,-2.2528,-2.253,-2.2549,-2.2559,-2.2556,-2.2556,-2.2566,-2.2576,-2.2575,-2.2579,-2.2592,-2.2588,-2.2536,-2.2528,-2.2521,-2.2514,-2.2593,-2.2593,-2.2643,-2.2643,-2.2644]}]]